Вернуться в каталог

IRIDIUM 33 DEB

АктивенPO
NORAD 34079·DEBRIS·🇺🇸 United States

Запущен Sep 14, 1997 с Baikonur Cosmodrome

Loading…

Ближайшие Пролёты (ближайшие 24 часа)

TLE

СвежийSource: Space-Track

Эпоха: Sep 14, 2026, 10:10 UTC

1 34079U 97051CN  26257.42408197  .00009621  00000-0  95944-3 0  9994
2 34079  86.3710 242.2964 0010054  84.8433  66.6246 14.91420787930778

Отслеживайте IRIDIUM 33 DEB в реальном времени с AllMySat

Download on the App Store